Regional Weather Roundup
Issued by NWS Kansas City/Pleasant Hill, MO

Home | Current Version | Previous Version | Graphics & Text | Print | Product List | Glossary Off
Versions: 1 2 3 4 5 6 7 8 9 10 11 12 13 14 15 16 17 18 19 20 21 22 23 24 25 26 27 28 29 30 31 32 33 34 35 36 37 38 39 40 41 42 43 44 45 46 47 48 49 50

000
ASUS43 KEAX 311610
RWREAX

WEATHER ROUNDUP FOR EASTERN KANSAS AND NORTHWEST MISSOURI
NATIONAL WEATHER SERVICE KANSAS CITY/PLEASANT HILL MO
1100 AM CDT FRI JUL 31 2015

KSZ040-057-103>105-MOZ028-029-037-043-311700-
...KANSAS CITY METROPOLITAN AREA...

CITY           SKY/WX    TMP DP  RH WIND       PRES   REMARKS
K.C. INTL      MOSUNNY   81  68  64 W7        30.17S
K.C. DOWNTOWN  SUNNY     84  65  52 W6        30.15F
LEES SUMMIT    SUNNY     83  64  52 SW7       30.17F
OLATHE - IXD   MOSUNNY   83  64  52 S5        30.18F
OLATHE - OJC   SUNNY     81  64  56 VRB5      30.17F
LAWRENCE       SUNNY     82  66  58 SW5       30.16F

$$

MOZ001>008-011>017-020>025-030>033-038>040-044>046-053-054-311700-
...NORTHERN AND CENTRAL MISSOURI...

CITY           SKY/WX    TMP DP  RH WIND       PRES   REMARKS
ST. JOSEPH     SUNNY     80  71  74 SW7       30.14F
MOSBY          SUNNY     81  64  57 NW5       30.16R
WARRENSBURG    SUNNY     82  64  54 SW3       30.16F
WHITEMAN AFB   SUNNY     83  65  53 W3        30.16F
CLINTON        SUNNY     84  66  54 W5        30.18R
SEDALIA        SUNNY     84  66  54 NW6       30.18S
WARSAW         NOT AVBL
CHILLICOTHE      N/A     82  67  60 SW6       30.15F
KIRKSVILLE     PTSUNNY   80  65  59 W8        30.16R

$$

MOZ041-047>049-056>058-063>065-088>090-097-311700-
...EASTERN AND SOUTHERN MISSOURI...

CITY           SKY/WX    TMP DP  RH WIND       PRES   REMARKS
ST. LOUIS INTL SUNNY     87  65  47 W8        30.13S
SPIRIT OF STL  SUNNY     86  68  54 W5        30.12S
COLUMBIA       SUNNY     84  66  54 W10       30.15F
JEFFERSON CITY SUNNY     84  66  54 W8        30.15R
ROLLA          SUNNY     83  64  52 N9        30.16S
OSAGE BEACH    SUNNY     82  63  51 SW3       30.17F
SPRINGFIELD    SUNNY     84  59  42 CALM      30.18F
BRANSON        MOSUNNY   82  63  51 CALM      30.20S
JOPLIN         SUNNY     85  64  49 S5        30.18S
WEST PLAINS    SUNNY     85  62  46 N3        30.19F

$$

IAZ060-094-KSZ022-034>040-054-083-096-NEZ052-066-093-311700-
...KANSAS...SOUTHEAST NEBRASKA AND IOWA...

CITY           SKY/WX    TMP DP  RH WIND       PRES   REMARKS
TOPEKA         SUNNY     82  68  62 E3        30.17S
MANHATTAN      SUNNY     82  70  66 CALM      30.16F
EMPORIA        SUNNY     82  65  56 E5        30.18S
CHANUTE        SUNNY     84  64  50 VRB3      30.17S
WICHITA        PTSUNNY   85  67  54 N3        30.18S
OMAHA          MOSUNNY   86  71  60 W9        30.13S HX  91
LINCOLN        SUNNY     84  71  65 W8        30.16F
FALLS CITY     SUNNY     83  71  67 W8        30.14F
LAMONI         SUNNY     82  66  58 W6        30.14F
DES MOINES     MOSUNNY   83  67  58 CALM      30.12S

$$



USA.gov is the U.S. government's official web portal to all federal, state and local government web resources and services.